Time,TemperatureF,DewpointF,PressureIn,WindDirection,WindDirectionDegrees,WindSpeedMPH,WindSpeedGustMPH,Humidity,HourlyPrecipIn,Conditions,Clouds,dailyrainin,SoftwareType,DateUTC
2013-03-04 00:00:00,46.0,-99.9,-100.00,WNW,283,12.0,19.0,-999,-99.99,,,-99.99,,2013-03-04 07:00:00,
2013-03-04 00:52:00,46.0,-99.9,-100.00,WNW,283,12.0,19.0,-999,-99.99,,,-99.99,,2013-03-04 07:52:00,
2013-03-04 01:53:00,44.0,-99.9,-100.00,North,349,21.0,27.0,-999,-99.99,,,-99.99,,2013-03-04 08:53:00,
2013-03-04 02:00:00,39.0,-99.9,-100.00,NNW,343,18.0,25.0,-999,-99.99,,,-99.99,,2013-03-04 09:00:00,
2013-03-04 02:02:00,44.0,-99.9,-100.00,North,349,21.0,27.0,-999,-99.99,,,-99.99,,2013-03-04 09:02:00,
2013-03-04 02:52:00,39.0,-99.9,-100.00,NNW,343,18.0,25.0,-999,-99.99,,,-99.99,,2013-03-04 09:52:00,
2013-03-04 03:00:00,37.0,-99.9,-100.00,WNW,295,8.0,9.0,-999,-99.99,,,-99.99,,2013-03-04 10:00:00,
2013-03-04 03:52:00,37.0,-99.9,-100.00,WNW,295,8.0,9.0,-999,-99.99,,,-99.99,,2013-03-04 10:52:00,
2013-03-04 04:00:00,35.0,-99.9,-100.00,NW,310,10.0,13.0,-999,-99.99,,,-99.99,,2013-03-04 11:00:00,
2013-03-04 04:52:00,35.0,-99.9,-100.00,NW,310,10.0,13.0,-999,-99.99,,,-99.99,,2013-03-04 11:52:00,
2013-03-04 05:00:00,33.0,-99.9,-100.00,North,0,16.0,21.0,-999,-99.99,,,-99.99,,2013-03-04 12:00:00,
2013-03-04 05:53:00,33.0,-99.9,-100.00,North,0,16.0,21.0,-999,-99.99,,,-99.99,,2013-03-04 12:53:00,
2013-03-04 06:00:00,33.0,-99.9,-100.00,North,0,13.0,19.0,-999,-99.99,,,-99.99,,2013-03-04 13:00:00,
2013-03-04 06:52:00,33.0,-99.9,-100.00,North,0,13.0,19.0,-999,-99.99,,,-99.99,,2013-03-04 13:52:00,
2013-03-04 07:00:00,33.0,-99.9,-100.00,NNW,344,16.0,19.0,-999,-99.99,,,-99.99,,2013-03-04 14:00:00,
2013-03-04 07:52:00,33.0,-99.9,-100.00,NNW,344,16.0,19.0,-999,-99.99,,,-99.99,,2013-03-04 14:52:00,
2013-03-04 08:00:00,37.0,-99.9,-100.00,North,0,11.0,19.0,-999,-99.99,,,-99.99,,2013-03-04 15:00:00,
2013-03-04 08:52:00,37.0,-99.9,-100.00,North,0,11.0,19.0,-999,-99.99,,,-99.99,,2013-03-04 15:52:00,
2013-03-04 09:00:00,41.0,-99.9,-100.00,North,3,12.0,25.0,-999,-99.99,,,-99.99,,2013-03-04 16:00:00,
2013-03-04 09:52:00,41.0,-99.9,-100.00,North,3,12.0,25.0,-999,-99.99,,,-99.99,,2013-03-04 16:52:00,
2013-03-04 10:00:00,42.0,-99.9,-100.00,North,0,21.0,28.0,-999,-99.99,,,-99.99,,2013-03-04 17:00:00,
2013-03-04 10:52:00,42.0,-99.9,-100.00,North,0,21.0,28.0,-999,-99.99,,,-99.99,,2013-03-04 17:52:00,
2013-03-04 11:00:00,42.0,-99.9,-100.00,North,2,16.0,26.0,-999,-99.99,,,-99.99,,2013-03-04 18:00:00,
2013-03-04 11:53:00,42.0,-99.9,-100.00,North,2,16.0,26.0,-999,-99.99,,,-99.99,,2013-03-04 18:53:00,
2013-03-04 12:00:00,42.0,-99.9,-100.00,North,354,24.0,27.0,-999,-99.99,,,-99.99,,2013-03-04 19:00:00,
2013-03-04 12:52:00,42.0,-99.9,-100.00,North,354,24.0,27.0,-999,-99.99,,,-99.99,,2013-03-04 19:52:00,
2013-03-04 13:00:00,42.0,-99.9,-100.00,NNW,338,22.0,32.0,-999,-99.99,,,-99.99,,2013-03-04 20:00:00,
2013-03-04 13:53:00,42.0,-99.9,-100.00,NNW,338,22.0,32.0,-999,-99.99,,,-99.99,,2013-03-04 20:53:00,
2013-03-04 14:00:00,42.0,-99.9,-100.00,NNW,342,35.0,40.0,-999,-99.99,,,-99.99,,2013-03-04 21:00:00,
2013-03-04 14:53:00,42.0,-99.9,-100.00,NNW,342,35.0,40.0,-999,-99.99,,,-99.99,,2013-03-04 21:53:00,
2013-03-04 15:00:00,39.0,-99.9,-100.00,NW,324,26.0,27.0,-999,-99.99,,,-99.99,,2013-03-04 22:00:00,
2013-03-04 15:52:00,39.0,-99.9,-100.00,NW,324,26.0,27.0,-999,-99.99,,,-99.99,,2013-03-04 22:52:00,
2013-03-04 16:00:00,39.0,-99.9,-100.00,NNW,340,21.0,25.0,-999,-99.99,,,-99.99,,2013-03-04 23:00:00,
2013-03-04 16:53:00,39.0,-99.9,-100.00,NNW,340,21.0,25.0,-999,-99.99,,,-99.99,,2013-03-04 23:53:00,
2013-03-04 17:00:00,35.0,-99.9,-100.00,NNW,335,31.0,40.0,-999,-99.99,,,-99.99,,2013-03-05 00:00:00,
2013-03-04 17:52:00,35.0,-99.9,-100.00,NNW,335,31.0,40.0,-999,-99.99,,,-99.99,,2013-03-05 00:52:00,
2013-03-04 18:00:00,32.0,-99.9,-100.00,NNW,347,21.0,31.0,-999,-99.99,,,-99.99,,2013-03-05 01:00:00,
2013-03-04 18:52:00,32.0,-99.9,-100.00,NNW,347,21.0,31.0,-999,-99.99,,,-99.99,,2013-03-05 01:52:00,
2013-03-04 19:00:00,31.0,-99.9,-100.00,North,352,26.0,34.0,-999,-99.99,,,-99.99,,2013-03-05 02:00:00,
2013-03-04 19:53:00,31.0,-99.9,-100.00,North,352,26.0,34.0,-999,-99.99,,,-99.99,,2013-03-05 02:53:00,
2013-03-04 20:00:00,29.0,-99.9,-100.00,NNW,333,23.0,30.0,-999,-99.99,,,-99.99,,2013-03-05 03:00:00,
2013-03-04 20:53:00,29.0,-99.9,-100.00,NNW,333,23.0,30.0,-999,-99.99,,,-99.99,,2013-03-05 03:53:00,
2013-03-04 21:00:00,29.0,-99.9,-100.00,NNW,343,22.0,33.0,-999,-99.99,,,-99.99,,2013-03-05 04:00:00,
2013-03-04 21:52:00,29.0,-99.9,-100.00,NNW,343,22.0,33.0,-999,-99.99,,,-99.99,,2013-03-05 04:52:00,
2013-03-04 22:00:00,27.0,-99.9,-100.00,NNW,330,19.0,19.0,-999,-99.99,,,-99.99,,2013-03-05 05:00:00,
2013-03-04 22:52:00,27.0,-99.9,-100.00,NNW,330,19.0,19.0,-999,-99.99,,,-99.99,,2013-03-05 05:52:00,
2013-03-04 23:00:00,27.0,-99.9,-100.00,NNW,330,25.0,29.0,-999,-99.99,,,-99.99,,2013-03-05 06:00:00,
2013-03-04 23:52:00,27.0,-99.9,-100.00,NNW,330,25.0,29.0,-999,-99.99,,,-99.99,,2013-03-05 06:52:00,